Location: Asheville, NC
(35.6000°N, 82.5500°W)
Time: 09:39:02
(UTC-04:00)

YUBILEINY - Pass Details

Date: 09 March 2018
Orbit: 1478 x 1508 km, 82.5° (Epoch: 25 June)

Event Time Altitude Azimuth Distance (km) Brightness Sun altitude
Rises 20:05:11 0° 228° (SW) 4,596 ? -19.6°
Reaches altitude 10° 20:08:55 10° 242° (WSW) 3,616 ? -20.3°
Maximum altitude 20:15:21 23° 291° (WNW) 2,760 ? -21.6°
Drops below altitude 10° 20:21:49 10° 340° (NNW) 3,621 ? -22.9°
Sets 20:25:37 0° 355° (N) 4,605 ? -23.6°
